Location: Pl�tzky
(52.0521°N, 11.8020°E)
Time: 23:57:43
(UTC+00:00)

USA 229 - Pass Details

Date: 29 February 2020
Orbit: 986 x 1226 km, 63.4° (Epoch: 26 March)

Event Time Altitude Azimuth Distance (km) Brightness Sun altitude
Rises 17:39:00 0° 245° (WSW) 3,739 8.0 -8.1°
Reaches altitude 10° 17:41:37 10° 250° (WSW) 2,814 7.3 -8.5°
Maximum altitude 17:48:07 55° 328° (NNW) 1,268 4.3 -9.5°
Drops below altitude 10° 17:55:02 10° 45° (NE) 2,984 5.6 -10.6°
Enters shadow 17:57:09 - 49° (NE) 3,723 6.1 -10.9°
